Change the Weather History Date:

Tuesday, June 18, 2013

  Actual Average Record
Temperature  
Mean Temperature 82 °F -  
Max Temperature 90 °F 85 °F 93 °F (1998)
Min Temperature 75 °F 70 °F 68 °F (1999)
Cooling Degree Days 18    
Growing Degree Days 32 (Base 50)    
Moisture  
Dew Point 73 °F    
Average Humidity 72    
Maximum Humidity 94    
Minimum Humidity 52    
Precipitation  
Precipitation 0.03 in - - ()
Sea Level Pressure  
Sea Level Pressure 29.97 in    
Wind  
Wind Speed 4 mph (SW)    
Max Wind Speed 9 mph    
Max Gust Speed 17 mph    
Visibility 10 miles    
Events Rain    
Averages and records for this station are not official NWS values.
T = Trace of Precipitation, MM = Missing Value Source: NWS Daily Summary

Daily Weather History Graph

Daily Weather History Graph

Search for Another Location

Airport or City:

Trip Planner

Search our weather history database for the weather conditions in past years. The results will help you decide how hot, cold, wet, or windy it might be!

Date:

Astronomy

Jun. 18, 2013 Rise Set
Actual Time 5:49 AM CDT 7:57 PM CDT
Civil Twilight 5:21 AM CDT 8:25 PM CDT
Nautical Twilight 4:48 AM CDT 8:58 PM CDT
Astronomical Twilight 4:11 AM CDT 9:35 PM CDT
Moon 2:56 PM CDT (6/18) 1:40 AM CDT (6/18)
Length of Visible Light 15h 03m
Length of Day
14h 07m
Waxing Gibbous, 71% of the Moon is Illuminated
Jun 18
Waxing Gibbous
Jun 23
Full
Jun 29
Last Quarter
Jul 8
New
Jul 15
First Quarter

Hourly Weather History & Observations

Time (CDT) Temp. Heat Index Dew Point Humidity Pressure Visibility Wind Dir Wind Speed Gust Speed Precip Events Conditions
12:53 AM 81.0 °F 86.2 °F 73.9 °F 79% 29.98 in 10.0 mi South 4.6 mph - N/A   Clear
1:53 AM 80.1 °F 84.2 °F 73.0 °F 79% 29.97 in 10.0 mi SW 3.5 mph - N/A   Clear
2:53 AM 79.0 °F - 73.0 °F 82% 29.97 in 10.0 mi Calm Calm - N/A   Clear
3:17 AM 78.8 °F - 73.4 °F 83% 29.96 in 10.0 mi SSW 3.5 mph - N/A   Clear
3:53 AM 79.0 °F - 73.0 °F 82% 29.96 in 10.0 mi WSW 3.5 mph - N/A   Clear
4:53 AM 79.0 °F - 73.9 °F 84% 29.96 in 10.0 mi Calm Calm - N/A   Scattered Clouds
5:53 AM 77.0 °F - 73.9 °F 90% 29.98 in 10.0 mi Variable 4.6 mph - N/A   Mostly Cloudy
6:53 AM 75.9 °F - 73.9 °F 94% 30.00 in 10.0 mi Calm Calm - 0.03 in   Mostly Cloudy
7:53 AM 80.1 °F 85.1 °F 75.0 °F 85% 30.01 in 10.0 mi WSW 4.6 mph - 0.00 in Rain Light Rain
8:53 AM 82.0 °F 88.6 °F 75.0 °F 79% 30.02 in 10.0 mi West 4.6 mph - 0.00 in   Mostly Cloudy
9:53 AM 84.9 °F 92.1 °F 73.9 °F 69% 30.03 in 10.0 mi Variable 5.8 mph - N/A   Scattered Clouds
10:53 AM 84.0 °F 89.0 °F 71.1 °F 65% 30.02 in 10.0 mi West 6.9 mph 17.3 mph N/A   Mostly Cloudy
11:53 AM 89.1 °F 95.0 °F 71.1 °F 55% 29.99 in 10.0 mi SW 8.1 mph - N/A   Scattered Clouds
12:53 PM 90.0 °F 95.4 °F 70.0 °F 52% 29.98 in 10.0 mi West 9.2 mph - N/A   Scattered Clouds
1:53 PM 88.0 °F 94.7 °F 72.0 °F 59% 29.97 in 10.0 mi SSW 5.8 mph - N/A   Scattered Clouds
2:53 PM 89.1 °F 97.0 °F 73.0 °F 59% 29.95 in 10.0 mi SSW 5.8 mph 16.1 mph N/A   Scattered Clouds
3:53 PM 89.1 °F 97.0 °F 73.0 °F 59% 29.94 in 10.0 mi Variable 5.8 mph - N/A   Clear
4:53 PM 89.1 °F 95.0 °F 71.1 °F 55% 29.91 in 10.0 mi SW 5.8 mph - N/A   Scattered Clouds
5:53 PM 87.1 °F 93.6 °F 72.0 °F 61% 29.91 in 10.0 mi SSW 9.2 mph - N/A   Scattered Clouds
6:53 PM 84.9 °F 91.4 °F 73.0 °F 67% 29.92 in 10.0 mi Variable 5.8 mph 16.1 mph N/A   Clear
7:53 PM 82.9 °F 89.4 °F 73.9 °F 74% 29.94 in 10.0 mi SW 4.6 mph - N/A   Scattered Clouds